Погода в Комодоро-Ривадавии

Аргентина     45°50′23″S   67°29′14″W
темп.,
°C
ветер,
м/с
пор.,
м/с
влажн.,
%
обл.,
%
осадки,
мм/ч
давл.,
гПа
погр.,
м
25 июня, сб
сб2500:00+2зсз56650 0.0 103287
03:00+2зсз56650 0.0 103091
06:00+2зсз56590 0.0 102973
09:00+2зсз45540 0.0 102952
12:00+6сз34350 0.0 1027150
15:00+8сз35280 0.0 1024318
18:00+4зсз43330 0.0 102340
21:00+3сз45330 0.0 102049
26 июня, вс
вс2600:00+3сз45340 0.0 101750
03:00+3сз45460 0.0 101459
06:00+3сз45510 0.0 101158
09:00+3сз55545 0.0 100960
12:00+7зсз48410 0.0 1007242
15:00+9зсз58372 0.0 1003332
18:00+5зсз56465 0.0 100289
21:00+5зсз68477 0.0 1001111
27 июня, пн
пн2700:00+4зсз69465 0.0 1000121
03:00+4зсз674098 0.0 99983
06:00+6зсз5731100 0.0 1000105
09:00+7з81531100 0.0 1002371
12:00+7з71339100 0.3 1004426
15:00+9з6104182 0.3 1003484
18:00+7зюз335299 0.0 100535
21:00+7зсз3460100 0.0 100566
28 июня, вт
вт2800:00+7зсз5863100 0.0 1004158
03:00+6ссз466393 0.0 100195
06:00+7ссз51058100 0.0 999197
09:00+8зсз1324600 0.0 998513
12:00+10зсз1122564 0.0 997687
15:00+12з4134674 0.0 9961002
18:00+9сз2260100 0.0 99727
21:00+8сз3363100 0.0 99520
29 июня, ср
ср2900:00+8сз61462100 0.0 992305
03:00+8зсз61565100 0.1 990570
06:00+6з15226697 0.0 988705
09:00+6зюз172558100 0.8 9931745
12:00+7зюз131842100 0.0 9971409
15:00+8юз121744100 0.0 10001618
18:00+7зюз1016465 0.0 1003676
21:00+6з916420 0.0 1006511